Location: Engelmannsreuth
(49.8125°N, 11.6497°E)
Time: 16:53:04
(UTC+00:00)

Cosmos 1943 - Pass Details

Date: 17 February 2020
Orbit: 832 x 852 km, 71.0° (Epoch: 06 April)

Event Time Altitude Azimuth Distance (km) Brightness Sun altitude
Rises 05:00:22 0° 202° (SSW) 3,364 6.1 -13.6°
Reaches altitude 10° 05:02:47 10° 201° (SSW) 2,436 5.4 -13.2°
Maximum altitude 05:08:21 78° 116° (ESE) 859 3.4 -12.3°
Drops below altitude 10° 05:14:00 10° 31° (NNE) 2,462 6.0 -11.4°
Sets 05:16:27 0° 30° (NNE) 3,403 6.7 -11.0°
